Location: Falniów
(50.3639°N, 19.9642°E)
Time: 08:11:45
(UTC+00:00)

Cosmos 371 Rocket - Pass Details

Date: 18 January 2026
Orbit: 676 x 688 km, 74.0° (Epoch: 14 February)

Event Time Altitude Azimuth Distance (km) Brightness Sun altitude
Rises 05:01:11 0° 185° (S) 3,041 6.8 -14.0°
Reaches altitude 10° 05:03:33 10° 179° (S) 2,128 6.0 -13.7°
Maximum altitude 05:08:07 46° 107° (ESE) 916 4.5 -13.0°
Drops below altitude 10° 05:12:43 10° 34° (NE) 2,136 6.0 -12.3°
Sets 05:15:05 0° 29° (NNE) 3,054 6.8 -11.9°
